104P/Kowal 2 (2022)

Japanese version
Home page
Updated on November 3, 2020

---------------------------------------------------------------------

* Profile

* Orbital Elements

Epoch 2022 Jan. 21.0 TT = JDT 2459600.5
T 2022 Jan. 11.15221 TT                                 MPCW
q   1.0727915            (2000.0)            P               Q
n   0.17167455     Peri.  227.16177     +0.26839163     -0.96221776
a   3.2062603      Node   207.36963     +0.91036300     +0.26891722
e   0.6654072      Incl.    5.72472     +0.31496849     +0.04266746
P   5.74
From 126 observations 2003 Aug. 31-2016 May 16, mean residual 1".0.
     Nongravitational parameters A1 = -2.30, A2 = -0.2410.

* Finding Charts

* Magnitudes Graph

        m1 = 10.8 + 5 log d + 20.0 log r

---------------------------------------------------------------------

The orbital elements are published on M.P.E.C. 2016-K18.
The charts are made with StellaNavigator Ver.10 (AstroArts).
The magnitudes graphs are made with Comet for Windows.

---------------------------------------------------------------------

Copyright(C) Seiichi Yoshida (comet@aerith.net). All rights reserved.